STARLINK-1243 (45234 NORAD) Tracking and Keplerian Element Data

This shows tracking and keplerian element data for the satellite.

Feedback or suggestion? Click here.




ElementValue
Catalog45234
NameSTARLINK-1243
Epoch Orbit650
Epoch Day88.25001157
Epoch Year2020
RAAN79.2132
Inclination53.0039
Eccentricity0.0001379
Argument of Perigee83.9547
Mean Anonmoly234.7572
Mean Motion15.13315428
Decay Rate-0.00122711
L11 45234U 20012BJ 20088.25001157 -.00122711 00000-0 -69101-2 0 9997
L22 45234 53.0039 79.2132 0001379 83.9547 234.7572 15.13315428 6504

Live tracking and technical data element details for STARLINK-1243 (NORAD 45234). STARLINK-1243 can be tracked NOW for your location showing map with azimuth and elevation plus other details from your city location.

Track the satellite on the map from your city or location and see movement details for azimuth, elevation, latitude, longitude, range, height, and movement on the map or in text.







IsCatalogInMostPopularTable: catalog: 45234, numindb: 6
Update: records affected: 1



GetName: 45234 STARLINK-1243

Hit Count: updated at: Tue, 31 Mar 2020 13:43:27 GMT